Content
SEND FEEDBACK

Daily
Averages
Monthly
Summary
United States of America

NEW YORK - UPPER EAST SIDE, NEW YORK


Home > North America > United States > New York
Elevation: 132 feet     Latitude: 40 47N     Longitude: 073 58W

WEATHER
 
SELECT A DAY
Number of Records: 148,305;   Date Range: 11/1/95 - 9/16/14
 
SHARE

PRINT THIS DATA

[ ← Previous Day ]
WEATHER ALMANAC - SEPTEMBER 28, 2013
[ Next Day → ]
[ °C ]   °F
Weather ElementAverageHighLow
Temperature64.4 °F73 °F (1:51 pm)55.9 °F (6:51 am)
Dewpoint49.6 °F52 °F (7:51 pm)46.9 °F (2:51 pm)
Humidity60 %80 % (6:51 am)41 % (2:51 pm)
Barometer30.28 in30.33 in (9:51 am)30.24 in (11:51 pm)
Wind Speed4.7 mph8.1 mph (12:51 pm)
Wind Gust17.3 mph (12:51 pm)
Weather ElementAverage
Visibility10 mi
Wind DirectionENE (61.7 °)

Weather ElementTotal
Precipitation---
Heating Degree Days0.5 (Base 65)
Growing Degree Days14.5 (Base 50)
Averaged from 23 records on September 28, 2013
WEATHER CONDITIONS BREAKOUT
WIND DIRECTION BREAKOUT
WEATHER BY HOUR - SEPTEMBER 28, 2013
[ °C ]   °F
Local TimeTemperatureDewpointHumidityBarometerVisibilityWind DirectionWind SpeedGust SpeedPrecipitationEventsConditions
1:51 AM60.1 °F51.1 °F72 %30.27 in10.0 miNNE (30°)3.5 mphScattered Clouds
2:51 AM60.1 °F50.0 °F69 %30.26 in10.0 miVariable4.6 mphMostly Cloudy
3:51 AM59.0 °F48.9 °F69 %30.27 in10.0 miNNE (30°)4.6 mphClear
4:51 AM57.0 °F48.9 °F74 %30.27 in10.0 miVariable3.5 mphClear
5:51 AM57.0 °F48.9 °F74 %30.29 in10.0 miNNE (30°)4.6 mphClear
6:51 AM55.9 °F50.0 °F80 %30.30 in10.0 miNE (50°)3.5 mphClear
7:51 AM57.9 °F51.1 °F78 %30.31 in10.0 miVariable3.5 mphClear
8:51 AM61.0 °F51.1 °F70 %30.32 in10.0 miVariable3.5 mphClear
9:51 AM64.0 °F48.9 °F58 %30.33 in10.0 miVariable5.8 mphClear
10:51 AM66.0 °F50.0 °F56 %30.33 in10.0 miVariable5.8 mphClear
11:51 AM70.0 °F51.1 °F51 %30.32 in10.0 miNW (320°)4.6 mphPartly Cloudy
12:51 PM71.1 °F48.0 °F44 %30.30 in10.0 miEast (80°)8.1 mph17.3 mphClear
1:51 PM73.0 °F48.9 °F42 %30.29 in10.0 miEast (80°)6.9 mphClear
2:51 PM72.0 °F46.9 °F41 %30.27 in10.0 miEast (100°)8.1 mphClear
3:51 PM71.1 °F48.0 °F44 %30.27 in10.0 miVariable6.9 mphClear
4:51 PM70.0 °F48.0 °F46 %30.26 in10.0 miESE (120°)5.8 mphClear
5:51 PM70.0 °F46.9 °F44 %30.26 in10.0 miENE (70°)6.9 mphPartly Cloudy
6:51 PM66.0 °F51.1 °F59 %30.26 in10.0 miSouth (180°)4.6 mphPartly Cloudy
7:51 PM64.9 °F52.0 °F63 %30.26 in10.0 miSouth (180°)5.8 mphClear
8:51 PM64.0 °F50.0 °F60 %30.26 in10.0 miVariable3.5 mphClear
9:51 PM64.0 °F50.0 °F60 %30.26 in10.0 miCalmPartly Cloudy
10:51 PM64.0 °F50.0 °F60 %30.26 in10.0 miSSE (150°)3.5 mphMostly Cloudy
11:51 PM63.0 °F51.1 °F65 %30.24 in10.0 miCalmClear
Hourly data recorded from KNYC, located miles away from New York - Upper East Side, New York







STORIES FROM OUR PARTNERS